Regional Weather Roundup
Issued by NWS

Home | Current Version | Previous Version | Text Only | Print | Product List | Glossary On
Versions: 1 2 3 4 5 6 7 8 9 10 11 12 13 14 15 16 17 18 19 20 21 22 23 24 25 26 27 28 29 30 31 32 33 34 35 36 37 38 39 40 41 42 43
000
ASPQ40 PGUM 220012
RWRPQ
WEATHER ROUNDUP FOR THE MARIANAS AND MICRONESIA
NATIONAL WEATHER SERVICE TIYAN GU
1000 AM CHST WED OCT 22 2014

GUZ001>004-220100-
MARIANA ISLANDS-

CITY           SKY/WX    TMP DP  RH WIND       PRES   REMARKS
GUAM AIRPORT   MOSUNNY   86  75  70 E9        29.85S HX  95
ANDERSEN AFB   MOSUNNY   84  75  74 E8        29.85S HX  92
ROTA AIRPORT   MOSUNNY   82  75  78 E7        29.86R
TINIAN AP      MOSUNNY   86  75  70 E7        29.84S HX  95
SAIPAN AP      MOSUNNY   86  75  70 E8        29.85F HX  95

$$

PMZ161-220100-
REPUBLIC OF PALAU-

CITY           SKY/WX    TMP DP  RH WIND       PRES   REMARKS
KOROR AP       PTSUNNY   84  77  79 NW7       29.88R HX  94
KOROR WSO      CLOUDY    86  79  79 N9        29.88R HX  99

$$

PMZ171>174-220100-
FEDERATED STATES OF MICRONESIA-

CITY           SKY/WX    TMP DP  RH WIND       PRES   REMARKS
YAP AIRPORT    CLOUDY    84  77  79 NE9       29.84S HX  94
CHUUK AP       MOSUNNY   88  79  74 VRB3      29.81F HX 102
POHNPEI AP     NOT AVBL
POHNPEI WSO    CLOUDY    81  77  89 S6        29.89S
KOSRAE AP      LGT RAIN  81  77  89 SW5       29.83R

$$

PMZ181-220100-
REPUBLIC OF THE MARSHALL ISLANDS-

CITY           SKY/WX    TMP DP  RH WIND       PRES   REMARKS
KWAJALEIN AP   MOSUNNY   90  75  62 SE9       29.81F HX 100
MAJURO AP      PTSUNNY   86  77  74 NE9       29.81  HX  97
MAJURO WSO     PTSUNNY   86  79  79 NE6       29.80F HX  99

$$




USA.gov is the U.S. government's official web portal to all federal, state and local government web resources and services.